DW3693 Weather Reports


Display with metric or nautical units.
time (UTC)temp
F
wind
direction
speed
MPH
gust
MPH
rain 1hr
in
rain 24hr
in
rain mn
in
humidity
%
barometer
mb
20260903133029 48 0.0 1.0 0.00 0.24 0.01 94 1010.4
20260903132119 49 0.0 0.0 0.00 0.24 0.01 94 1010.4
20260903131517 49 0.0 0.0 0.00 0.24 0.01 94 1010.3
20260903130558 49 0.0 0.0 0.00 0.24 0.01 94 1010.3
20260903125523 49 0.0 0.0 0.00 0.24 0.01 94 1010.1
20260903124516 49 0.0 0.0 0.00 0.24 0.01 94 1010.2
20260903123517 49 0.0 0.0 0.00 0.24 0.01 94 1010.3
20260903122522 49 0.0 1.0 0.00 0.24 0.01 94 1010.3
20260903121615 49 0.0 2.0 0.00 0.24 0.01 94 1010.3
20260903120523 49 0.0 1.0 0.00 0.24 0.01 94 1010.4
20260903115516 49 0.0 1.0 0.00 0.24 0.01 94 1010.2
20260903114517 50 0.0 3.0 0.00 0.24 0.01 94 1010.3
20260903113517 50 0.0 0.0 0.00 0.24 0.01 94 1010.3
20260903112517 50 0.0 0.0 0.00 0.24 0.01 94 1010.3
20260903111523 51 0.0 0.0 0.00 0.24 0.01 94 1010.3
20260903110517 51 0.0 1.0 0.00 0.24 0.01 94 1010.0
20260903105538 51 0.0 1.0 0.00 0.24 0.01 94 1010.0
20260903104523 52 0.0 0.0 0.00 0.24 0.01 94 1010.0
20260903103517 52 0.0 0.0 0.00 0.24 0.01 94 1009.9
20260903102522 51 0.0 0.0 0.00 0.24 0.01 94 1009.8
20260903101518 52 0.0 0.0 0.00 0.24 0.01 93 1009.7
20260903100522 52 0.0 2.0 0.00 0.24 0.01 93 1009.8
20260903095525 52 0.0 1.0 0.00 0.24 0.01 94 1009.8
20260903094521 52 0.0 0.0 0.00 0.24 0.01 93 1009.7
20260903093517 52 0.0 1.0 0.00 0.24 0.01 93 1009.7
20260903092522 53 0.0 1.0 0.00 0.24 0.01 93 1009.8
20260903091517 53 0.0 1.0 0.00 0.24 0.01 93 1009.7
20260903090517 52 0.0 1.0 0.01 0.24 0.01 93 1009.7
20260903085517 52 0.0 1.0 0.01 0.24 0.01 93 1009.8
20260903084537 53 0.0 1.0 0.01 0.24 0.01 93 1009.9
20260903083516 53 0.0 0.0 0.01 0.24 0.01 93 1009.8
20260903082516 53 0.0 0.0 0.01 0.24 0.01 93 1009.7
20260903081517 53 0.0 0.0 0.01 0.24 0.01 93 1009.7
20260903080517 54 0.0 2.0 0.00 0.23 0.00 93 1009.6
20260903075517 53 270 1.0 3.0 0.00 0.23 0.00 93 1009.6
20260903074516 53 0.0 0.0 0.00 0.23 0.00 93 1009.7
20260903073647 53 0.0 2.0 0.00 0.23 0.00 93 1009.4
20260903072520 53 248 1.0 2.0 0.00 0.23 0.00 93 1009.2
20260903071521 53 0.0 2.0 0.00 0.23 0.00 93 1009.1
20260903070638 53 0.0 2.0 0.00 0.23 0.00 93 1009.2
20260903065526 53 0.0 2.0 0.00 0.23 0.23 93 1009.2
20260903064516 53 225 1.0 2.0 0.00 0.23 0.23 93 1009.4
20260903063541 54 0.0 1.0 0.00 0.23 0.23 93 1009.3
20260903062522 54 0.0 2.0 0.00 0.23 0.23 93 1009.4
20260903061516 54 0.0 0.0 0.00 0.23 0.23 93 1009.4
20260903060547 54 0.0 0.0 0.00 0.23 0.23 92 1009.2
20260903055517 54 203 2.0 5.0 0.00 0.23 0.23 93 1009.3
20260903054516 54 0.0 0.0 0.00 0.23 0.23 92 1009.1
20260903053516 54 0.0 0.0 0.00 0.23 0.23 92 1009.1
20260903052516 55 0.0 2.0 0.00 0.23 0.23 92 1009.2
20260903051522 55 0.0 1.0 0.00 0.23 0.23 92 1009.1
20260903050613 55 203 1.0 3.0 0.00 0.23 0.23 92 1009.0
20260903045516 55 0.0 0.0 0.00 0.23 0.23 92 1008.8
20260903044516 55 0.0 0.0 0.00 0.23 0.23 92 1008.7
20260903043614 55 0.0 0.0 0.00 0.23 0.23 91 1008.8
20260903042517 55 0.0 0.0 0.00 0.23 0.23 90 1008.7
20260903041543 56 248 1.0 4.0 0.00 0.23 0.23 90 1008.4
20260903040522 56 248 3.0 6.0 0.00 0.23 0.23 90 1008.3
20260903035540 56 248 2.0 9.0 0.00 0.23 0.23 90 1008.2
20260903034523 56 248 1.0 2.0 0.00 0.23 0.23 90 1007.8
20260903033522 56 248 1.0 2.0 0.00 0.23 0.23 90 1008.0
20260903032523 56 135 1.0 6.0 0.00 0.23 0.23 90 1007.8
20260903031523 56 248 2.0 7.0 0.00 0.23 0.23 91 1007.8
20260903030521 56 293 2.0 6.0 0.00 0.23 0.23 91 1007.6
20260903025516 56 225 2.0 4.0 0.02 0.23 0.23 91 1007.6
20260903024702 56 270 2.0 7.0 0.08 0.23 0.23 91 1007.6
20260903023527 56 68 2.0 6.0 0.08 0.23 0.23 92 1007.6
20260903022516 57 248 1.0 6.0 0.08 0.23 0.23 92 1007.4
20260903020516 58 270 3.0 7.0 0.09 0.23 0.23 92 1007.3
20260903015518 58 0 1.0 4.0 0.07 0.21 0.21 92 1007.2
20260903014536 59 0.0 0.0 0.01 0.15 0.15 92 1007.0
20260903013517 59 0.0 0.0 0.02 0.15 0.15 92 1007.0
20260903012521 59 0.0 0.0 0.02 0.15 0.15 92 1007.0
20260903011517 59 0.0 0.0 0.03 0.15 0.15 92 1006.9
20260903010522 59 0.0 0.0 0.03 0.14 0.14 92 1006.9
20260903005521 59 0.0 0.0 0.03 0.14 0.14 92 1007.0
20260903004524 59 0.0 0.0 0.04 0.14 0.14 91 1007.0
20260903003520 59 0.0 0.0 0.04 0.13 0.13 91 1007.1
20260903002520 59 0.0 0.0 0.04 0.13 0.13 90 1007.1
20260903001537 59 0.0 0.0 0.03 0.12 0.12 90 1007.1
20260903000517 59 0.0 0.0 0.02 0.11 0.11 89 1007.0
20260902235517 59 0.0 0.0 0.02 0.11 0.11 89 1007.0
20260902234517 60 0.0 0.0 0.01 0.10 0.10 89 1007.1
20260902233517 60 0.0 0.0 0.00 0.09 0.09 89 1007.0
20260902232540 60 0.0 0.0 0.01 0.09 0.09 88 1007.2
20260902231517 60 0.0 0.0 0.01 0.09 0.09 89 1007.3
20260902230522 60 0.0 0.0 0.02 0.09 0.09 89 1007.2
20260902225516 61 0.0 0.0 0.02 0.09 0.09 90 1007.3
20260902224522 60 0.0 0.0 0.03 0.09 0.09 90 1007.2
20260902223527 60 0.0 0.0 0.03 0.09 0.09 91 1007.1
20260902222524 60 0.0 0.0 0.03 0.08 0.08 90 1007.3
20260902221522 60 0.0 0.0 0.04 0.08 0.08 90 1007.3
20260902220525 60 0.0 0.0 0.03 0.07 0.07 90 1007.1
20260902215516 60 0.0 0.0 0.04 0.07 0.07 90 1007.1
20260902214517 60 0.0 0.0 0.03 0.06 0.06 90 1006.9
20260902213521 60 0.0 2.0 0.04 0.06 0.06 90 1006.9
20260902212523 60 0.0 1.0 0.03 0.05 0.05 89 1006.9
20260902211517 60 0.0 1.0 0.03 0.04 0.04 89 1006.9
20260902210521 61 0.0 2.0 0.03 0.04 0.04 89 1007.1
20260902205517 60 0.0 0.0 0.02 0.03 0.03 88 1007.0
20260902204516 60 0.0 1.0 0.02 0.03 0.03 88 1007.1
20260902203556 60 0.0 1.0 0.01 0.02 0.02 87 1007.0
20260902202519 60 0.0 1.0 0.02 0.02 0.02 86 1007.1
20260902201522 61 0.0 2.0 0.01 0.01 0.01 85 1007.2
20260902200517 61 0.0 0.0 0.01 0.01 0.01 86 1007.1
20260902195536 61 0.0 2.0 0.01 0.01 0.01 85 1007.1
20260902194523 62 0.0 0.0 0.01 0.01 0.01 83 1007.1
20260902193516 62 0.0 2.0 0.01 0.01 0.01 79 1007.1
20260902192547 63 0.0 1.0 0.00 0.00 0.00 78 1007.1
20260902191522 64 0.0 2.0 0.00 0.00 0.00 73 1007.1
20260902190516 64 0.0 1.0 0.00 0.00 0.00 70 1007.0
20260902185539 65 0.0 2.0 0.00 0.00 0.00 71 1007.0
20260902184519 65 0.0 1.0 0.00 0.00 0.00 68 1006.9
20260902183523 65 0.0 1.0 0.00 0.00 0.00 67 1006.8
20260902182522 65 293 1.0 2.0 0.00 0.00 0.00 66 1006.8
20260902181601 65 0.0 1.0 0.00 0.00 0.00 67 1006.8
20260902180516 65 45 1.0 3.0 0.00 0.00 0.00 65 1007.0
20260902175516 65 45 1.0 4.0 0.00 0.00 0.00 65 1006.9
20260902174518 65 45 2.0 4.0 0.00 0.00 0.00 65 1007.0
20260902173516 66 0 1.0 4.0 0.00 0.00 0.00 63 1007.0
20260902172516 66 315 2.0 4.0 0.00 0.00 0.00 64 1007.1
20260902171516 65 0 2.0 4.0 0.00 0.00 0.00 65 1007.1
20260902170521 63 0.0 2.0 0.00 0.00 0.00 73 1007.4
20260902165524 62 68 1.0 2.0 0.00 0.00 0.00 71 1007.6
20260902164516 62 0.0 2.0 0.00 0.00 0.00 72 1007.7
20260902163516 62 113 1.0 5.0 0.00 0.00 0.00 71 1007.9
20260902162520 63 180 1.0 2.0 0.00 0.00 0.00 73 1007.8
20260902161516 62 180 1.0 2.0 0.00 0.00 0.00 74 1007.9
20260902160515 62 180 1.0 4.0 0.00 0.00 0.00 74 1008.0
20260902155522 61 158 2.0 4.0 0.00 0.00 0.00 75 1008.0
20260902154536 62 270 1.0 3.0 0.00 0.00 0.00 73 1008.2
20260902153516 62 180 1.0 4.0 0.00 0.00 0.00 74 1008.2
20260902152516 61 203 1.0 3.0 0.00 0.00 0.00 74 1008.4
20260902151516 61 225 1.0 3.0 0.00 0.00 0.00 74 1008.6
20260902150515 60 225 1.0 2.0 0.00 0.00 0.00 76 1008.6
20260902145522 60 225 1.0 3.0 0.00 0.00 0.00 76 1008.7
20260902144522 60 0.0 2.0 0.00 0.00 0.00 77 1008.6
20260902143518 60 0.0 2.0 0.00 0.00 0.00 77 1008.9
20260902142516 60 203 1.0 3.0 0.00 0.00 0.00 77 1009.0
20260902141515 60 293 1.0 4.0 0.00 0.00 0.00 77 1009.1
20260902140523 59 225 1.0 5.0 0.00 0.00 0.00 77 1009.0
20260902135517 59 248 2.0 4.0 0.00 0.00 0.00 77 1008.9
20260902134524 59 293 3.0 10.0 0.00 0.00 0.00 76 1009.1